Regional Weather Roundup
Issued by NWS

Home | Current Version | Previous Version | Text Only | Print | Product List | Glossary On
Versions: 1 2 3 4 5 6 7 8 9 10 11 12 13 14 15 16 17 18 19 20 21 22 23 24 25 26 27 28 29 30 31 32 33 34 35 36 37 38 39 40 41 42 43 44 45 46 47 48 49 50
000
ASUS43 KLMK 250502
RWRKY
KENTUCKY REGIONAL WEATHER ROUNDUP
NATIONAL WEATHER SERVICE LOUISVILLE KY
100 AM EDT TUE APR 25 2017

NOTE "FAIR" INDICATES FEW OR NO CLOUDS BELOW 12,000 FEET
WITH NO SIGNIFICANT WEATHER AND/OR OBSTRUCTIONS TO VISIBILITY.

KYZ001>023-026-027-061>063-070>075-250600-
WESTERN AND SOUTH CENTRAL KENTUCKY

CITY           SKY/WX    TMP DP  RH WIND       PRES   REMARKS
PADUCAH        CLEAR     62  54  74 S7        29.74F
HENDERSON      PTCLDY    56  52  86 CALM      29.75S
OWENSBORO      CLEAR     61  54  77 E5        29.76S
HOPKINSVILLE   CLEAR     56  55  96 SW6       29.76F
BOWLING GREEN  CLEAR     59  57  93 CALM      29.76R
GLASGOW        NOT AVBL
$$

KYZ024-025-028>034-038-045-046-053-250600-
NORTH CENTRAL KENTUCKY

CITY           SKY/WX    TMP DP  RH WIND       PRES   REMARKS
LOUISVILLE/SDF PTCLDY    62  53  72 E6        29.77S
LOUISVILLE/LOU MOCLDY    63  54  72 CALM      29.78S
FORT KNOX      CLEAR     56  52  85 CALM      29.75F
$$

KYZ035>037-039>044-047>052-055>060-089>105-250600-
NORTHEAST KENTUCKY

CITY           SKY/WX    TMP DP  RH WIND       PRES   REMARKS
LEXINGTON      CLEAR     58  51  78 E7        29.78F
COVINGTON      CLOUDY    59  53  80 E12       29.81S
FRANKFORT      PTCLDY    59  51  75 E7        29.78S
$$

KYZ054-064>069-076>088-106>120-250600-
SOUTHEAST KENTUCKY

CITY           SKY/WX    TMP DP  RH WIND       PRES   REMARKS
JACKSON        MOCLDY    55  52  89 CALM      29.78F
LONDON         CLEAR     56  50  80 NE3       29.76F
SOMERSET       CLOUDY    57  52  82 N3        29.78R
MIDDLESBORO    PTCLDY    55  55  99 CALM      29.77S
MONTICELLO     CLOUDY    55  54  96 NE9       29.78S
$$




USA.gov is the U.S. government's official web portal to all federal, state and local government web resources and services.